Spokane Fairchild, WA

6:30 PM PST on November 19, 2017 (GMT -0800)
Fairchild Air Force Base

Weather History for KSKA - July, 2013

Change the Weather History Date:

Saturday, July 27, 2013

  Actual Average Record
Temperature  
Mean Temperature 72 °F -  
Max Temperature 86 °F 84 °F 102 °F (1998)
Min Temperature 58 °F 56 °F 46 °F (2015)
Cooling Degree Days 7    
Growing Degree Days 22 (Base 50)    
Moisture  
Dew Point 34 °F    
Average Humidity 26    
Maximum Humidity 50    
Minimum Humidity 12    
Precipitation  
Precipitation 0.00 in - - ()
Sea Level Pressure  
Sea Level Pressure 29.93 in    
Wind  
Wind Speed 9 mph (SW)    
Max Wind Speed 14 mph    
Max Gust Speed 20 mph    
Visibility 10 miles    
Events Rain    
Averages and records for this station are not official NWS values.
T = Trace of Precipitation, MM = Missing Value Source: NWS Daily Summary

Daily Weather History Graph

Daily Weather History Graph

Search for Another Location

Airport or City:

Trip Planner

Search our weather history database for the weather conditions in past years. The results will help you decide how hot, cold, wet, or windy it might be!

Date:

Astronomy

Jul. 27, 2013 Rise Set
Actual Time 5:22 AM PDT 8:31 PM PDT
Civil Twilight 4:45 AM PDT 9:07 PM PDT
Nautical Twilight 3:57 AM PDT 9:55 PM PDT
Astronomical Twilight 2:57 AM PDT 10:54 PM PDT
Moon 10:49 PM PDT (7/27) 11:37 AM PDT (7/27)
Length of Visible Light 16h 22m
Length of Day
15h 09m
Waning Gibbous, 70% of the Moon is Illuminated
Jul 27
Waning Gibbous
Jul 29
Last Quarter
Aug 6
New
Aug 14
First Quarter
Aug 20
Full

Hourly Weather History & Observations

Time (PDT) Temp. Dew Point Humidity Pressure Visibility Wind Dir Wind Speed Gust Speed Precip Events Conditions
12:58 AM 66.4 °F 39.4 °F 37% 29.91 in 10.0 mi SW 8.1 mph - N/A   Clear
1:58 AM 63.3 °F 40.1 °F 43% 29.92 in 10.0 mi SW 8.1 mph - N/A   Clear
2:58 AM 59.7 °F 40.5 °F 49% 29.92 in 10.0 mi SSW 5.8 mph - N/A   Clear
3:58 AM 58.3 °F 39.6 °F 50% 29.93 in 10.0 mi South 12.7 mph - N/A   Clear
4:58 AM 59.2 °F 39.6 °F 48% 29.93 in 10.0 mi South 12.7 mph - N/A   Clear
5:58 AM 59.7 °F 38.8 °F 46% 29.94 in 10.0 mi South 10.4 mph - N/A   Clear
6:58 AM 59.9 °F 40.3 °F 48% 29.95 in 10.0 mi South 11.5 mph - N/A   Clear
7:58 AM 64.6 °F 39.0 °F 39% 29.96 in 10.0 mi SSW 10.4 mph - N/A   Clear
8:58 AM 68.4 °F 39.4 °F 35% 29.98 in 10.0 mi SSW 6.9 mph - N/A   Clear
9:58 AM 74.7 °F 38.8 °F 27% 29.97 in 10.0 mi South 5.8 mph - N/A   Clear
10:44 AM 77.0 °F 39.2 °F 26% 30.01 in 10.0 mi Variable 4.6 mph - N/A   Light Drizzle
10:46 AM 77.0 °F 39.2 °F 26% 30.01 in 10.0 mi SSW 5.8 mph - N/A   Clear
10:58 AM 76.5 °F 38.8 °F 26% 29.97 in 10.0 mi SE 9.2 mph - 0.00 in   Clear
11:58 AM 81.3 °F 33.6 °F 18% 29.96 in 10.0 mi Variable 6.9 mph 17.3 mph N/A   Clear
12:05 PM 82.4 °F 32.0 °F 16% 30.00 in 10.0 mi Variable 4.6 mph 17.3 mph N/A Rain Light Rain
12:15 PM 82.4 °F 32.0 °F 16% 29.99 in 10.0 mi Variable 6.9 mph - N/A   Clear
12:58 PM 84.2 °F 27.3 °F 13% 29.94 in 10.0 mi WSW 10.4 mph - 0.00 in   Clear
1:58 PM 84.7 °F 28.9 °F 13% 29.93 in 10.0 mi SW 12.7 mph - N/A   Clear
2:01 PM 84.2 °F 28.4 °F 13% 29.97 in 10.0 mi West 11.5 mph - N/A   Clear
2:38 PM 86.0 °F 28.4 °F 12% 29.95 in 10.0 mi SSW 10.4 mph 19.6 mph N/A Rain Light Rain
2:43 PM 86.0 °F 28.4 °F 12% 29.95 in 10.0 mi SSW 9.2 mph - N/A   Clear
2:58 PM 86.2 °F 28.9 °F 13% 29.91 in 10.0 mi WSW 13.8 mph - 0.00 in   Clear
3:41 PM 86.0 °F 32.0 °F 14% 29.94 in 10.0 mi WSW 12.7 mph 19.6 mph N/A   Clear
3:58 PM 86.5 °F 31.8 °F 14% 29.89 in 10.0 mi Variable 3.5 mph - N/A   Clear
4:58 PM 85.5 °F 33.3 °F 15% 29.87 in 10.0 mi West 9.2 mph - N/A   Clear
5:58 PM 85.1 °F 33.1 °F 15% 29.86 in 10.0 mi WSW 10.4 mph - N/A   Clear
6:58 PM 83.1 °F 32.4 °F 16% 29.86 in 10.0 mi SW 10.4 mph - N/A   Clear
7:58 PM 78.6 °F 30.7 °F 17% 29.85 in 10.0 mi WSW 9.2 mph - N/A   Clear
8:58 PM 70.0 °F 32.9 °F 25% 29.86 in 10.0 mi SW 6.9 mph - N/A   Clear
9:58 PM 66.9 °F 30.4 °F 26% 29.86 in 10.0 mi SW 8.1 mph - N/A   Clear
10:58 PM 65.3 °F 31.6 °F 28% 29.85 in 10.0 mi SW 8.1 mph - N/A   Clear
11:58 PM 63.7 °F 32.5 °F 31% 29.84 in 10.0 mi SW 6.9 mph - N/A   Clear